Weather History for Szeged, Hungary

Change the Weather History Date:

Friday, April 19, 2013

  Actual Average (LRAR) Record (LRAR)
Temperature  
Mean Temperature 59 °F -  
Max Temperature 72 °F 69 °F 73 °F (2009)
Min Temperature 46 °F 48 °F 35 °F (1997)
Degree Days  
Heating Degree Days 6    
Growing Degree Days 9 (Base 50)    
Moisture  
Dew Point 39 °F    
Average Humidity 48    
Maximum Humidity 81    
Minimum Humidity 18    
Precipitation  
Precipitation 0.00 in 0.06 in - ()
Sea Level Pressure  
Sea Level Pressure 30.08 in    
Wind  
Wind Speed 6 mph ()    
Max Wind Speed 9 mph    
Max Gust Speed -    
Visibility 19.0 miles    
Events      
Averages and records for this station are not official NWS values.
T = Trace of Precipitation, MM = Missing Value Source: Averaged Metar Reports

Daily Weather History Graph

Daily Weather History Graph

Search for Another Location

Airport:

Trip Planner

Search our weather history database for the weather conditions in past years. The results will help you decide how hot, cold, wet, or windy it might be!

Date:

Astronomy

Apr. 19, 2013 Rise Set
Actual Time 5:45 AM CEST 7:32 PM CEST
Civil Twilight 5:14 AM CEST 8:04 PM CEST
Nautical Twilight 4:35 AM CEST 8:43 PM CEST
Astronomical Twilight 3:52 AM CEST 9:26 PM CEST
Moon 12:37 PM CEST (4/19) 2:12 AM CEST (4/19)
Length of Visible Light 14h 50m
Length of Day
13h 46m
First Quarter, 59% of the Moon is Illuminated
Apr 19
First Quarter
Apr 25
Full
May 2
Last Quarter
May 10
New
May 18
First Quarter

Hourly Weather History & Observations

Time (CEST) Temp. Windchill Dew Point Humidity Pressure Visibility Wind Dir Wind Speed Gust Speed Precip Events Conditions
12:45 AM 53.6 °F - 44.6 °F 72% 30.09 in - East 6.9 mph - N/A   Clear
1:45 AM 51.8 °F - 42.8 °F 71% 30.09 in - SE 8.1 mph - N/A   Clear
2:00 AM 52 °F - 43 °F 61% 30.10 in 22 mi SE 8.9 mph - -   Partly Cloudy
2:45 AM 50.0 °F - 42.8 °F 76% 30.09 in - SE 8.1 mph - N/A   Clear
3:45 AM 48.2 °F - 41.0 °F 76% 30.09 in - SE 9.2 mph - N/A   Clear
4:45 AM 46.4 °F 42.9 °F 41.0 °F 81% 30.09 in - SE 6.9 mph - N/A   Clear
5:45 AM 46.4 °F 42.9 °F 39.2 °F 76% 30.09 in - SE 6.9 mph - N/A   Clear
6:15 AM 46.4 °F 42.4 °F 39.2 °F 76% 30.09 in - SE 8.1 mph - N/A   Clear
6:45 AM 48.2 °F - 41.0 °F 76% 30.09 in - SE 6.9 mph - N/A   Clear
7:15 AM 51.8 °F - 41.0 °F 67% 30.09 in - SE 6.9 mph - N/A   Clear
7:45 AM 53.6 °F - 41.0 °F 62% 30.12 in - SE 6.9 mph - N/A   Clear
8:00 AM 53 °F - 41 °F 52% 30.12 in 19 mi SE 6.7 mph - -   Partly Cloudy
8:15 AM 55.4 °F - 41.0 °F 58% 30.12 in - SE 9.2 mph - N/A   Clear
8:45 AM 57.2 °F - 41.0 °F 55% 30.12 in - SE 8.1 mph - N/A   Clear
9:15 AM 60.8 °F - 41.0 °F 48% 30.12 in - SE 8.1 mph - N/A   Clear
9:45 AM 62.6 °F - 42.8 °F 48% 30.12 in - SE 8.1 mph - N/A   Clear
10:45 AM 66.2 °F - 42.8 °F 43% 30.12 in - SE 6.9 mph - N/A   Clear
11:15 AM 66.2 °F - 39.2 °F 37% 30.12 in - SSE 8.1 mph - N/A   Clear
11:45 AM 68.0 °F - 39.2 °F 35% 30.12 in - SE 6.9 mph - N/A   Clear
12:15 PM 68.0 °F - 39.2 °F 35% 30.09 in - SSE 6.9 mph - N/A   Clear
12:45 PM 69.8 °F - 37.4 °F 31% 30.09 in - SE 6.9 mph - N/A   Clear
1:15 PM 69.8 °F - 37.4 °F 31% 30.09 in - SE 6.9 mph - N/A   Clear
1:45 PM 69.8 °F - 35.6 °F 28% 30.09 in - SE 6.9 mph - N/A   Clear
2:00 PM 70 °F - 36 °F 18% 30.08 in 34 mi SE 6.7 mph - -   Partly Cloudy
2:15 PM 71.6 °F - 37.4 °F 29% 30.06 in - SE 6.9 mph - N/A   Clear
2:45 PM 71.6 °F - 35.6 °F 27% 30.06 in - ESE 6.9 mph - N/A   Clear
3:15 PM 71.6 °F - 35.6 °F 27% 30.06 in - SE 5.8 mph - N/A   Clear
3:45 PM 71.6 °F - 39.2 °F 31% 30.04 in - ENE 4.6 mph - N/A   Clear
4:15 PM 71.6 °F - 37.4 °F 29% 30.04 in - East 4.6 mph - N/A   Clear
4:45 PM 71.6 °F - 33.8 °F 25% 30.04 in - ENE 4.6 mph - N/A   Clear
5:15 PM 71.6 °F - 37.4 °F 29% 30.04 in - NNE 3.5 mph - N/A   Clear
5:45 PM 71.6 °F - 33.8 °F 25% 30.04 in - East 5.8 mph - N/A   Clear
6:15 PM 69.8 °F - 35.6 °F 28% 30.04 in - East 5.8 mph - N/A   Clear
6:45 PM 68.0 °F - 37.4 °F 33% 30.04 in - East 5.8 mph - N/A   Clear
7:15 PM 64.4 °F - 37.4 °F 37% 30.04 in - ESE 3.5 mph - N/A   Clear
7:45 PM 62.6 °F - 37.4 °F 39% 30.04 in - ENE 2.3 mph - N/A   Clear
8:00 PM 62 °F - 36 °F 27% 30.02 in 22 mi ENE 2.2 mph - -   Partly Cloudy
8:15 PM 60.8 °F - 37.4 °F 42% 30.04 in - Calm Calm - N/A   Clear
8:45 PM 57.2 °F - 37.4 °F 48% 30.04 in - ENE 1.2 mph - N/A   Clear
9:15 PM 55.4 °F - 39.2 °F 54% 30.04 in - Calm Calm - N/A   Clear
9:45 PM 51.8 °F - 41.0 °F 67% 30.04 in - SW 1.2 mph - N/A   Clear
10:45 PM 53.6 °F - 41.0 °F 62% 30.04 in - NW 2.3 mph - N/A   Clear
11:45 PM 51.8 °F - 42.8 °F 71% 30.04 in - North 2.3 mph - N/A   Clear